TimeCDT,TemperatureF,Dew PointF,Humidity,Sea Level PressureIn,VisibilityMPH,Wind Direction,Wind SpeedMPH,Gust SpeedMPH,PrecipitationIn,Events,Conditions,WindDirDegrees,DateUTC
12:53 AM,32.0,28.9,88,30.23,10.0,Calm,Calm,-,N/A,,Clear,0,2012-09-28 05:53:00
1:53 AM,30.9,28.0,89,30.23,10.0,Calm,Calm,-,N/A,,Clear,0,2012-09-28 06:53:00
2:53 AM,30.0,28.0,92,30.23,10.0,Calm,Calm,-,N/A,,Clear,0,2012-09-28 07:53:00
3:53 AM,28.9,27.0,92,30.24,10.0,Calm,Calm,-,N/A,,Clear,0,2012-09-28 08:53:00
4:53 AM,28.9,27.0,92,30.25,10.0,Calm,Calm,-,N/A,,Clear,0,2012-09-28 09:53:00
5:53 AM,28.9,26.1,89,30.24,10.0,Calm,Calm,-,N/A,,Clear,0,2012-09-28 10:53:00
6:53 AM,28.0,26.1,92,30.25,10.0,Calm,Calm,-,N/A,,Clear,0,2012-09-28 11:53:00
7:53 AM,30.9,28.9,92,30.26,10.0,Calm,Calm,-,N/A,,Clear,0,2012-09-28 12:53:00
8:53 AM,42.1,37.9,85,30.25,10.0,Calm,Calm,-,N/A,,Clear,0,2012-09-28 13:53:00
9:53 AM,52.0,39.9,63,30.26,10.0,Calm,Calm,-,N/A,,Clear,0,2012-09-28 14:53:00
10:53 AM,57.9,39.0,49,30.26,10.0,Calm,Calm,-,N/A,,Clear,0,2012-09-28 15:53:00
11:53 AM,63.0,39.0,41,30.24,10.0,South,4.6,-,N/A,,Clear,190,2012-09-28 16:53:00
12:53 PM,66.0,36.0,33,30.22,10.0,Variable,5.8,-,N/A,,Clear,0,2012-09-28 17:53:00
1:53 PM,68.0,36.0,31,30.19,10.0,West,5.8,-,N/A,,Clear,260,2012-09-28 18:53:00
2:53 PM,69.1,35.1,29,30.17,10.0,Calm,Calm,-,N/A,,Clear,0,2012-09-28 19:53:00
3:53 PM,68.0,36.0,31,30.16,10.0,Calm,Calm,-,N/A,,Clear,0,2012-09-28 20:53:00
4:53 PM,70.0,36.0,29,30.14,10.0,West,3.5,-,N/A,,Clear,260,2012-09-28 21:53:00
5:53 PM,66.9,39.0,36,30.14,10.0,Calm,Calm,-,N/A,,Clear,0,2012-09-28 22:53:00
6:53 PM,57.0,43.0,59,30.14,10.0,Calm,Calm,-,N/A,,Clear,0,2012-09-28 23:53:00
7:53 PM,48.9,43.0,80,30.14,10.0,Calm,Calm,-,N/A,,Clear,0,2012-09-29 00:53:00
8:53 PM,45.0,39.9,82,30.14,10.0,Calm,Calm,-,N/A,,Clear,0,2012-09-29 01:53:00
9:53 PM,43.0,39.0,86,30.14,10.0,Calm,Calm,-,N/A,,Clear,0,2012-09-29 02:53:00
10:53 PM,41.0,37.9,89,30.13,10.0,Calm,Calm,-,N/A,,Clear,0,2012-09-29 03:53:00
11:53 PM,39.9,36.0,86,30.12,10.0,Calm,Calm,-,N/A,,Clear,0,2012-09-29 04:53:00